When you browse on this site, cookies collect data to enhance your experience and personalize the content and advertising you see.
Visit our Privacy Policy to learn more. By continuing to use the site, you agree to this use of cookies and data.
  • în România
  • Lista ţărilor
  • Pe 7 zile
  • Temperatura apei
  • Hartă satelitară
  • Meteo pe hartă
  • Widget-uri
  • user-avatar
    Intrare

    Meteo pe oră la Newcastle

    Astăzi, 22 Iulie, Luni

    Timp Temperatura Precipitaţii Vânt Presiune Umiditate
    00:00 +11°C° 0 mm 3 m/s 761 mmHg 77%
    01:00 +10°C° 0 mm 3 m/s 761 mmHg 78%
    02:00 +10°C° 0 mm 3 m/s 761 mmHg 79%
    03:00 +10°C° 0 mm 3 m/s 761 mmHg 79%
    04:00 +11°C° 0 mm 3 m/s 761 mmHg 80%
    05:00 +11°C° 0.1 mm 3 m/s 761 mmHg 79%
    06:00 +11°C° 0.1 mm 3 m/s 762 mmHg 79%
    07:00 +12°C° 0.1 mm 2 m/s 762 mmHg 79%
    08:00 +13°C° 0 mm 3 m/s 762 mmHg 73%
    09:00 +16°C° 0 mm 3 m/s 762 mmHg 68%
    10:00 +18°C° 0 mm 4 m/s 762 mmHg 63%
    11:00 +19°C° 0 mm 4 m/s 762 mmHg 57%
    12:00 +20°C° 0 mm 4 m/s 761 mmHg 52%
    13:00 +21°C° 0 mm 5 m/s 760 mmHg 46%
    14:00 +21°C° 0 mm 4 m/s 760 mmHg 49%
    15:00 +21°C° 0 mm 4 m/s 760 mmHg 52%
    16:00 +21°C° 0 mm 3 m/s 760 mmHg 54%
    17:00 +19°C° 0 mm 3 m/s 760 mmHg 61%
    18:00 +17°C° 0 mm 3 m/s 761 mmHg 67%
    19:00 +14°C° 0 mm 3 m/s 761 mmHg 74%
    20:00 +13°C° 0 mm 3 m/s 761 mmHg 76%
    21:00 +13°C° 0 mm 3 m/s 762 mmHg 78%
    22:00 +12°C° 0 mm 3 m/s 762 mmHg 81%
    23:00 +12°C° 0 mm 3 m/s 762 mmHg 82%

    Mâine, 23 Iulie, Marţi

    Timp Temperatura Precipitaţii Vânt Presiune Umiditate
    00:00 +11°C° 0 mm 3 m/s 762 mmHg 84%
    01:00 +11°C° 0 mm 3 m/s 762 mmHg 86%
    02:00 +10°C° 0 mm 3 m/s 761 mmHg 87%
    03:00 +10°C° 0 mm 3 m/s 761 mmHg 87%
    04:00 +10°C° 0 mm 4 m/s 761 mmHg 88%
    05:00 +8°C° 0 mm 4 m/s 762 mmHg 88%
    06:00 +8°C° 0 mm 4 m/s 762 mmHg 89%
    07:00 +8°C° 0 mm 5 m/s 762 mmHg 89%
    08:00 +10°C° 0 mm 5 m/s 762 mmHg 76%
    09:00 +14°C° 0 mm 5 m/s 763 mmHg 62%
    10:00 +16°C° 0 mm 6 m/s 763 mmHg 49%
    11:00 +17°C° 0 mm 6 m/s 762 mmHg 44%
    12:00 +20°C° 0 mm 6 m/s 761 mmHg 40%
    13:00 +21°C° 0 mm 6 m/s 761 mmHg 35%
    14:00 +20°C° 0 mm 6 m/s 761 mmHg 36%
    15:00 +20°C° 0 mm 6 m/s 761 mmHg 37%
    16:00 +20°C° 0 mm 6 m/s 761 mmHg 38%
    17:00 +17°C° 0 mm 6 m/s 761 mmHg 42%
    18:00 +16°C° 0 mm 6 m/s 762 mmHg 45%
    19:00 +14°C° 0 mm 6 m/s 762 mmHg 49%
    20:00 +13°C° 0 mm 5 m/s 762 mmHg 51%
    21:00 +12°C° 0 mm 5 m/s 763 mmHg 54%
    22:00 +12°C° 0 mm 5 m/s 763 mmHg 57%
    23:00 +10°C° 0 mm 5 m/s 763 mmHg 58%

    Poimâine, 24 Iulie, Miercuri

    Timp Temperatura Precipitaţii Vânt Presiune Umiditate
    00:00 +10°C° 0 mm 5 m/s 763 mmHg 58%
    01:00 +10°C° 0 mm 5 m/s 763 mmHg 59%
    02:00 +10°C° 0 mm 6 m/s 763 mmHg 59%
    03:00 +10°C° 0 mm 6 m/s 762 mmHg 60%
    04:00 +10°C° 0 mm 6 m/s 762 mmHg 60%
    05:00 +10°C° 0 mm 6 m/s 763 mmHg 61%
    06:00 +10°C° 0 mm 6 m/s 763 mmHg 63%
    07:00 +10°C° 0 mm 6 m/s 764 mmHg 64%
    08:00 +11°C° 0 mm 6 m/s 764 mmHg 60%
    09:00 +14°C° 0 mm 6 m/s 765 mmHg 56%
    10:00 +15°C° 0 mm 5 m/s 765 mmHg 51%
    11:00 +16°C° 0 mm 5 m/s 764 mmHg 48%
    12:00 +18°C° 0 mm 4 m/s 764 mmHg 45%
    13:00 +19°C° 0 mm 4 m/s 764 mmHg 41%
    14:00 +19°C° 0 mm 4 m/s 764 mmHg 43%
    15:00 +19°C° 0 mm 4 m/s 764 mmHg 44%
    16:00 +19°C° 0 mm 3 m/s 764 mmHg 46%
    17:00 +17°C° 0 mm 3 m/s 765 mmHg 53%
    18:00 +14°C° 0 mm 3 m/s 766 mmHg 60%
    19:00 +13°C° 0 mm 2 m/s 766 mmHg 68%
    20:00 +11°C° 0 mm 3 m/s 767 mmHg 70%
    21:00 +11°C° 0 mm 3 m/s 767 mmHg 73%
    22:00 +11°C° 0 mm 3 m/s 768 mmHg 76%
    23:00 +11°C° 0 mm 3 m/s 768 mmHg 77%

    25 Iulie, Joi

    Timp Temperatura Precipitaţii Vânt Presiune Umiditate
    00:00 +10°C° 0 mm 3 m/s 768 mmHg 78%
    01:00 +10°C° 0 mm 3 m/s 768 mmHg 79%
    02:00 +9°C° 0 mm 3 m/s 768 mmHg 81%
    03:00 +9°C° 0 mm 3 m/s 768 mmHg 83%
    04:00 +8°C° 0 mm 3 m/s 768 mmHg 86%
    05:00 +7°C° 0 mm 2 m/s 768 mmHg 87%
    06:00 +7°C° 0 mm 2 m/s 768 mmHg 89%
    07:00 +7°C° 0 mm 2 m/s 769 mmHg 91%
    08:00 +9°C° 0 mm 2 m/s 769 mmHg 81%
    09:00 +13°C° 0 mm 2 m/s 769 mmHg 70%
    10:00 +16°C° 0 mm 2 m/s 769 mmHg 60%
    11:00 +16°C° 0 mm 2 m/s 768 mmHg 57%
    12:00 +17°C° 0 mm 2 m/s 767 mmHg 55%
    13:00 +18°C° 0 mm 2 m/s 767 mmHg 53%
    14:00 +17°C° 0 mm 2 m/s 766 mmHg 55%
    15:00 +17°C° 0 mm 2 m/s 766 mmHg 57%
    16:00 +16°C° 0 mm 2 m/s 766 mmHg 59%
    17:00 +15°C° 0 mm 2 m/s 766 mmHg 66%
    18:00 +13°C° 0 mm 2 m/s 767 mmHg 73%
    19:00 +10°C° 0 mm 2 m/s 767 mmHg 80%
    20:00 +10°C° 0 mm 2 m/s 767 mmHg 82%
    21:00 +10°C° 0 mm 2 m/s 767 mmHg 84%
    22:00 +9°C° 0 mm 2 m/s 767 mmHg 85%
    23:00 +9°C° 0 mm 2 m/s 767 mmHg 87%

    26 Iulie, Vineri

    Timp Temperatura Precipitaţii Vânt Presiune Umiditate
    00:00 +9°C° 0 mm 2 m/s 766 mmHg 88%
    01:00 +9°C° 0 mm 2 m/s 766 mmHg 89%
    02:00 +8°C° 0 mm 2 m/s 766 mmHg 91%
    03:00 +8°C° 0 mm 2 m/s 765 mmHg 93%
    04:00 +8°C° 0 mm 2 m/s 765 mmHg 95%
    05:00 +7°C° 0 mm 2 m/s 765 mmHg 95%
    06:00 +7°C° 0 mm 2 m/s 765 mmHg 96%
    07:00 +7°C° 0 mm 2 m/s 765 mmHg 96%
    08:00 +9°C° 0 mm 2 m/s 765 mmHg 86%
    09:00 +12°C° 0 mm 2 m/s 765 mmHg 76%
    10:00 +13°C° 0 mm 3 m/s 765 mmHg 66%
    11:00 +16°C° 0 mm 3 m/s 764 mmHg 59%
    12:00 +17°C° 0 mm 3 m/s 763 mmHg 52%
    13:00 +19°C° 0 mm 4 m/s 762 mmHg 46%
    14:00 +18°C° 0 mm 4 m/s 762 mmHg 46%
    15:00 +18°C° 0 mm 4 m/s 762 mmHg 47%
    16:00 +18°C° 0 mm 4 m/s 762 mmHg 48%
    17:00 +17°C° 0 mm 4 m/s 763 mmHg 50%
    18:00 +14°C° 0 mm 4 m/s 763 mmHg 53%
    19:00 +13°C° 0 mm 5 m/s 763 mmHg 55%
    20:00 +12°C° 0 mm 5 m/s 764 mmHg 59%
    21:00 +11°C° 0 mm 4 m/s 764 mmHg 62%
    22:00 +11°C° 0 mm 4 m/s 764 mmHg 66%
    23:00 +10°C° 0 mm 4 m/s 764 mmHg 70%

    27 Iulie, Sâmbătă

    Timp Temperatura Precipitaţii Vânt Presiune Umiditate
    00:00 +8°C° 0 mm 4 m/s 764 mmHg 74%
    01:00 +7°C° 0 mm 4 m/s 764 mmHg 77%
    02:00 +8°C° 0 mm 3 m/s 764 mmHg 80%
    03:00 +7°C° 0 mm 3 m/s 764 mmHg 82%
    04:00 +7°C° 0 mm 3 m/s 764 mmHg 84%
    05:00 +5°C° 0 mm 3 m/s 764 mmHg 85%
    06:00 +5°C° 0 mm 3 m/s 765 mmHg 86%
    07:00 +5°C° 0 mm 3 m/s 765 mmHg 87%
    08:00 +8°C° 0 mm 3 m/s 765 mmHg 77%
    09:00 +11°C° 0 mm 3 m/s 765 mmHg 68%
    10:00 +13°C° 0 mm 3 m/s 765 mmHg 58%
    11:00 +16°C° 0 mm 2 m/s 764 mmHg 53%
    12:00 +17°C° 0 mm 2 m/s 764 mmHg 48%
    13:00 +19°C° 0 mm 2 m/s 763 mmHg 43%
    14:00 +18°C° 0 mm 2 m/s 763 mmHg 47%
    15:00 +18°C° 0 mm 2 m/s 763 mmHg 50%
    16:00 +17°C° 0 mm 2 m/s 763 mmHg 54%
    17:00 +16°C° 0 mm 1 m/s 763 mmHg 60%
    18:00 +14°C° 0 mm 1 m/s 764 mmHg 66%
    19:00 +12°C° 0 mm 1 m/s 764 mmHg 72%
    20:00 +12°C° 0 mm 1 m/s 764 mmHg 73%
    21:00 +10°C° 0 mm 2 m/s 765 mmHg 73%
    22:00 +10°C° 0 mm 3 m/s 765 mmHg 74%
    23:00 +9°C° 0 mm 3 m/s 765 mmHg 72%
    Arată mai mult